Latest Coastal Weather Observations for Northern Endeavour (near 10.5S 126E)

IDD60701

Issued at 10:21 am CST Saturday 31 January 2015 (issued every 10 minutes, with the page automatically refreshed every 10 minutes)

About coastal observations | Map of coastal stations | Coastal observations for NT | Marine services | Other Formats
Station Details ID: 200212 Name: NORTHERN ENDEAVOUR Lat: -10.61 Lon: 125.98 Height: 16.0 m
Data from the previous 72 hours. | See also: Recent months for locations in Northern Territory
Date/Time
CST
Temp

°C
Wind Pressure Rain
since 9am
mm
Weather Cloud Vis
km
Sea
Height
m
Swell
Dir
 
Speed
knots
Gust
knots
hPa Trend Height
m
Period
s
Dir
31/10:10am 30.2 W 11 11 1010.4 - - - - 10 - - - -
31/10:00am 30.1 W 13 12 1010.4 - - - - 10 - - - -
31/09:50am 29.9 W 14 16 1010.4 - - - Partly cloudy 10 - - - -
31/09:40am 29.2 W 15 15 1010.5 - - - Partly cloudy 10 - - - -
31/09:30am 29.1 W 16 17 1010.6 - - - Partly cloudy 10 - - - -
31/09:20am 29.3 W 15 16 1010.7 - - - - 10 - - - -
31/09:10am 29.0 WSW 14 16 1010.8 - - - Partly cloudy 10 - - - -
31/09:00am 28.5 WSW 12 14 1010.8 - - - Partly cloudy 10 - - - -
31/08:50am 28.4 WSW 12 14 1010.7 - - - Partly cloudy 10 - - - -
31/08:40am 28.1 WSW 12 13 1010.7 - - - Partly cloudy 10 - - - -
31/08:30am 27.8 W 12 14 1010.5 - - - Partly cloudy 10 - - - -
31/08:20am 26.2 W 15 12 1010.5 - - - Partly cloudy 10 - - - -
31/08:10am 27.1 WSW 16 25 1010.4 - - - Partly cloudy 3 - - - -
31/08:09am 27.3 WSW 15 28 1010.4 - - - Partly cloudy 7 - - - -
31/08:00am 28.7 W 13 14 1010.1 - - - Partly cloudy 10 - - - -
31/07:50am 28.6 W 14 15 1010.1 - - - Cloudy 10 - - - -
31/07:40am 28.6 W 15 17 1009.8 - - - Cloudy 10 - - - -
31/07:30am 28.6 W 15 14 1009.6 - - - Cloudy 10 - - - -
31/07:20am 28.5 W 14 15 1009.5 - - - Cloudy 10 - - - -
31/07:10am 28.5 W 13 14 1009.4 - - - Cloudy 10 - - - -
31/07:00am 28.4 W 15 16 1009.4 - - - Partly cloudy 10 - - - -
31/06:50am 28.5 W 15 18 1009.2 - - - Cloudy 10 - - - -
31/06:40am 28.6 W 18 21 1009.1 - - - Cloudy 10 - - - -
31/06:30am 28.5 W 16 18 1008.8 - - - Cloudy 10 - - - -
31/06:20am 28.2 W 16 15 1008.6 - - - Partly cloudy 10 - - - -
31/06:10am 28.5 WNW 15 17 1008.5 - - - Partly cloudy 10 - - - -
31/06:00am 28.1 WNW 10 16 1008.5 - - - Partly cloudy 10 - - - -
31/05:50am 27.8 WNW 7 8 1008.4 - - - Partly cloudy 10 - - - -
31/05:40am 27.6 WNW 8 10 1008.5 - - - Partly cloudy 10 - - - -
31/05:30am 27.2 WNW 10 10 1008.5 - - - Partly cloudy 10 - - - -
31/05:20am 27.8 WNW 14 13 1008.5 - - - Partly cloudy 7 - - - -
31/05:10am 27.7 WNW 16 17 1008.4 - - - Partly cloudy 10 - - - -
31/05:00am 27.4 WNW 17 17 1008.5 - - - Partly cloudy 10 - - - -
31/04:50am 27.6 WNW 17 17 1008.4 - - - Partly cloudy 10 - - - -
31/04:40am 27.9 WNW 16 16 1008.3 - - - Partly cloudy 10 - - - -
31/04:30am 28.4 WNW 17 13 1008.4 - - - Partly cloudy 9 - - - -
31/04:20am 28.8 W 15 18 1008.3 - - - Partly cloudy 10 - - - -
31/04:10am 28.8 W 15 16 1008.4 - - - Partly cloudy 10 - - - -
31/04:00am 28.8 W 16 16 1008.5 - - - Partly cloudy 10 - - - -
31/03:50am 28.8 W 16 16 1008.5 - - - Partly cloudy 10 - - - -
31/03:40am 28.8 W 14 16 1008.6 - - - Partly cloudy 10 - - - -
31/03:30am 28.9 W 15 16 1008.5 - - - Partly cloudy 10 - - - -
31/03:20am 28.8 W 17 18 1008.6 - - - - 10 - - - -
31/03:10am 28.8 W 16 19 1008.5 - - - Partly cloudy 10 - - - -
31/03:00am 28.8 W 16 16 1008.5 - - - Partly cloudy 10 - - - -
31/02:50am 28.6 W 15 17 1008.5 - - - Partly cloudy 10 - - - -
31/02:40am 28.6 W 15 17 1008.4 - - - Partly cloudy 10 - - - -
31/02:30am 28.5 W 15 17 1008.4 - - - Partly cloudy 10 - - - -
31/02:20am 28.5 W 15 16 1008.4 - - - Partly cloudy 10 - - - -
31/02:10am 28.5 W 16 16 1008.4 - - - - 10 - - - -
31/02:00am 28.5 W 15 16 1008.5 - - - - 10 - - - -
31/01:50am 28.5 W 15 15 1008.6 - - - - 10 - - - -
31/01:40am 28.6 W 15 16 1008.9 - - - - 10 - - - -
31/01:30am 28.6 W 16 16 1009.1 - - - - 10 - - - -
31/01:20am 28.7 W 15 17 1009.3 - - - - 10 - - - -
31/01:10am 28.6 W 16 17 1009.3 - - - - 10 - - - -
31/01:00am 28.6 W 16 18 1009.3 - - - - 10 - - - -
31/12:50am 28.6 W 15 16 1009.4 - - - - 10 - - - -
31/12:40am 28.6 W 16 17 1009.6 - - - - 10 - - - -
31/12:30am 28.8 W 16 18 1009.7 - - - Partly cloudy 10 - - - -
31/12:20am 28.7 W 15 17 1009.9 - - - Partly cloudy 10 - - - -
31/12:10am 28.5 W 13 13 1010.0 - - - Partly cloudy 10 - - - -
31/12:00am 28.4 W 12 14 1010.1 - - - Partly cloudy 10 - - - -
 
Date/Time
CST
Temp

°C
Wind Pressure Rain
since 9am
mm
Weather Cloud Vis
km
Sea
Height
m
Swell
Dir
 
Speed
knots
Gust
knots
hPa Trend Height
m
Period
s
Dir
30/11:50pm 28.1 W 12 12 1010.1 - - - Partly cloudy 10 - - - -
30/11:40pm 28.0 W 12 13 1010.3 - - - Partly cloudy 10 - - - -
30/11:30pm 28.0 W 13 13 1010.2 - - - Partly cloudy 10 - - - -
30/11:20pm 28.1 W 13 14 1010.2 - - - Partly cloudy 10 - - - -
30/11:10pm 27.8 W 15 14 1010.4 - - - Partly cloudy 10 - - - -
30/11:00pm 27.7 W 19 19 1010.3 - - - Partly cloudy 10 - - - -
30/10:50pm 27.3 WSW 24 23 1010.3 - - - Partly cloudy 10 - - - -
30/10:40pm 27.9 WSW 20 25 1010.2 - - - Partly cloudy 10 - - - -
30/10:34pm 29.0 W 17 30 1010.1 - - - - 10 - - - -
30/10:30pm 28.9 W 16 17 1010.1 - - - - 10 - - - -
30/10:20pm 28.6 WSW 11 16 1010.0 - - - - 10 - - - -
30/10:10pm 28.4 WSW 11 13 1009.9 - - - Partly cloudy 10 - - - -
30/10:00pm 28.5 W 13 14 1009.7 - - - Partly cloudy 10 - - - -
30/09:50pm 28.5 W 13 15 1009.7 - - - Partly cloudy 10 - - - -
30/09:40pm 28.6 W 12 15 1009.6 - - - Partly cloudy 10 - - - -
30/09:30pm 28.6 W 13 12 1009.3 - - - Partly cloudy 10 - - - -
30/09:20pm 28.8 W 14 14 1009.1 - - - Partly cloudy 10 - - - -
30/09:10pm 28.8 W 16 16 1009.1 - - - Partly cloudy 10 - - - -
30/09:00pm 28.7 W 16 16 1009.0 - - - Partly cloudy 10 - - - -
30/08:50pm 28.6 W 14 18 1008.7 - - - Partly cloudy 10 - - - -
30/08:40pm 28.2 W 9 12 1008.5 - - - Partly cloudy 10 - - - -
30/08:30pm 28.0 W 10 11 1008.5 - - - Partly cloudy 10 - - - -
30/08:20pm 27.9 W 13 13 1008.5 - - - Partly cloudy 10 - - - -
30/08:10pm 27.6 W 14 15 1008.2 - - - Partly cloudy 10 - - - -
30/08:00pm 27.0 W 18 17 1008.1 - - - Partly cloudy 10 - - - -
30/07:50pm 28.0 W 15 17 1008.0 - - - Partly cloudy 10 - - - -
30/07:40pm 28.5 WSW 13 17 1007.9 - - - Partly cloudy 10 - - - -
30/07:30pm 28.3 WSW 13 14 1007.9 - - - Partly cloudy 10 - - - -
30/07:20pm 28.8 W 14 19 1007.9 - - - Partly cloudy 10 - - - -
30/07:10pm 29.2 W 14 14 1007.7 - - - Partly cloudy 10 - - - -
30/07:00pm 29.3 W 14 17 1007.8 - - - Partly cloudy 10 - - - -
30/06:50pm 28.9 WSW 11 14 1007.6 - - - - 10 - - - -
30/06:40pm 29.2 WSW 11 14 1007.5 - - - Partly cloudy 10 - - - -
30/06:30pm 28.9 WSW 10 13 1007.6 - - - Partly cloudy 10 - - - -
30/06:20pm 29.6 WSW 15 14 1007.5 - - - Partly cloudy 10 - - - -
30/06:10pm 29.4 WSW 12 13 1007.4 - - - - 10 - - - -
30/06:00pm 29.1 WSW 12 13 1007.2 - - - - 10 - - - -
30/05:50pm 30.1 W 14 15 1007.1 - - - - 10 - - - -
30/05:40pm 30.4 W 13 15 1007.0 - - - - 10 - - - -
30/05:30pm 30.4 W 15 15 1006.9 - - - Partly cloudy 10 - - - -
30/05:20pm 30.6 W 16 16 1006.8 - - - Partly cloudy 10 - - - -
30/05:10pm 30.8 W 17 17 1006.8 - - - Partly cloudy 10 - - - -
30/05:00pm 30.0 WSW 16 18 1006.8 - - - - 10 - - - -
30/04:50pm 30.4 W 18 20 1006.7 - - - Partly cloudy 10 - - - -
30/04:40pm 30.7 W 16 18 1006.6 - - - Partly cloudy 10 - - - -
30/04:30pm 30.7 WSW 16 16 1006.6 - - - Partly cloudy 10 - - - -
30/04:20pm 30.5 W 15 16 1006.7 - - - Partly cloudy 10 - - - -
30/04:10pm 29.5 W 14 15 1006.7 - - - Partly cloudy 10 - - - -
30/04:00pm 29.6 W 12 13 1006.6 - - - Partly cloudy 10 - - - -
30/03:50pm 28.0 W 16 14 1006.8 - - - Partly cloudy 10 - - - -
30/03:40pm 30.6 W 17 25 1006.8 - - - Partly cloudy 6 - - - -
30/03:30pm 31.9 W 14 15 1006.8 - - - - 10 - - - -
30/03:20pm 31.9 W 14 15 1006.9 - - - - 10 - - - -
30/03:10pm 32.2 W 14 16 1007.1 - - - - 10 - - - -
30/03:00pm 31.9 W 12 14 1007.2 - - - - 10 - - - -
30/02:50pm 32.1 W 11 12 1007.3 - - - - 10 - - - -
30/02:40pm 30.8 W 10 10 1007.4 - - - Partly cloudy 10 - - - -
30/02:30pm 29.4 W 10 11 1007.5 - - - Partly cloudy 10 - - - -
30/02:20pm 28.4 W 11 15 1007.6 - - - Partly cloudy 10 - - - -
30/02:10pm 29.6 WNW 11 11 1007.7 - - - Partly cloudy 10 - - - -
30/02:00pm 30.8 WNW 9 12 1007.8 - - - Partly cloudy 10 - - - -
30/01:50pm 31.4 W 8 10 1008.0 - - - Partly cloudy 10 - - - -
30/01:40pm 31.4 W 9 12 1008.1 - - - - 10 - - - -
30/01:30pm 31.6 W 9 12 1008.3 - - - - 10 - - - -
30/01:20pm 31.5 W 9 10 1008.4 - - - - 10 - - - -
30/01:10pm 31.6 W 10 11 1008.6 - - - - 10 - - - -
30/01:00pm 31.0 W 10 12 1008.6 - - - - 10 - - - -
30/12:50pm 30.6 W 11 13 1008.8 - - - - 10 - - - -
30/12:40pm 29.8 W 10 13 1008.9 - - - - 10 - - - -
30/12:30pm 29.9 W 11 11 1009.1 - - - Partly cloudy 10 - - - -
30/12:20pm 29.3 W 10 13 1009.3 - - - Partly cloudy 10 - - - -
30/12:10pm 29.7 WSW 9 11 1009.4 - - - Partly cloudy 10 - - - -
30/12:00pm 29.7 WSW 11 12 1009.6 - - - Partly cloudy 10 - - - -
30/11:50am 28.2 WSW 15 16 1009.6 - - - Partly cloudy 10 - - - -
30/11:40am 29.6 W 10 11 1009.8 - - - Partly cloudy 10 - - - -
30/11:30am 32.3 WNW 10 12 1009.9 - - - Partly cloudy 10 - - - -
30/11:20am 30.9 WNW 8 10 1009.9 - - - - 10 - - - -
30/11:10am 30.4 WNW 6 7 1009.9 - - - - 10 - - - -
30/11:00am 30.5 WNW 6 7 1010.0 - - - Partly cloudy 10 - - - -
30/10:50am 31.0 WNW 6 8 1010.0 - - - Partly cloudy 10 - - - -
30/10:40am 30.5 WNW 7 8 1010.0 - - - Partly cloudy 10 - - - -
30/10:30am 30.4 WNW 8 9 1010.1 - - - Partly cloudy 10 - - - -
30/10:20am 29.9 WNW 8 9 1009.9 - - - Partly cloudy 10 - - - -
30/10:10am 29.5 W 7 8 1009.9 - - - Partly cloudy 10 - - - -
30/10:00am 29.3 WNW 6 9 1009.9 - - - Partly cloudy 10 - - - -
30/09:50am 29.4 W 6 6 1009.8 - - - Partly cloudy 10 - - - -
30/09:40am 29.0 W 7 9 1009.8 - - - Partly cloudy 10 - - - -
30/09:30am 29.0 W 6 7 1009.8 - - - Partly cloudy 10 - - - -
30/09:20am 28.7 W 7 9 1009.7 - - - Partly cloudy 10 - - - -
30/09:10am 28.5 W 8 10 1009.6 - - - Partly cloudy 10 - - - -
30/09:00am 28.1 WSW 9 10 1009.5 - - - Partly cloudy 10 - - - -
30/08:50am 27.9 WSW 10 11 1009.4 - - - Partly cloudy 10 - - - -
30/08:40am 28.0 WSW 9 11 1009.1 - - - - 10 - - - -
30/08:30am 28.0 WSW 9 9 1008.9 - - - - 10 - - - -
30/08:20am 27.9 WSW 9 11 1008.8 - - - - 10 - - - -
30/08:10am 27.6 WSW 8 10 1008.8 - - - - 10 - - - -
30/08:00am 27.3 WSW 7 9 1008.7 - - - - 10 - - - -
30/07:50am 27.1 WSW 8 8 1008.4 - - - - 10 - - - -
30/07:40am 26.9 WSW 8 9 1008.2 - - - Partly cloudy 10 - - - -
30/07:30am 26.9 WSW 8 10 1008.3 - - - Partly cloudy 10 - - - -
30/07:20am 26.7 WSW 6 8 1008.3 - - - Partly cloudy 10 - - - -
30/07:10am 26.3 W 9 9 1008.0 - - - Partly cloudy 10 - - - -
30/07:00am 26.2 W 11 10 1007.9 - - - Partly cloudy 10 - - - -
30/06:50am 26.3 W 12 13 1007.7 - - - Partly cloudy 10 - - - -
30/06:40am 26.3 W 11 13 1007.5 - - - Partly cloudy 10 - - - -
30/06:30am 26.1 W 10 11 1007.6 - - - Cloudy 10 - - - -
30/06:20am 26.1 WSW 13 16 1007.8 - - - Partly cloudy 10 - - - -
30/06:10am 25.7 W 17 18 1007.6 - - - Partly cloudy 10 - - - -
30/06:00am 25.2 W 15 19 1007.7 - - - Partly cloudy 10 - - - -
30/05:50am 25.1 W 17 17 1007.8 - - - Partly cloudy 10 - - - -
30/05:40am 25.1 W 18 17 1007.8 - - - Partly cloudy 10 - - - -
30/05:30am 24.9 NW 14 23 1007.7 - - - Partly cloudy 1 - - - -
30/05:20am 26.3 N 15 17 1007.7 - - - Partly cloudy 10 - - - -
30/05:10am 26.5 NNW 15 18 1007.4 - - - Partly cloudy 10 - - - -
30/05:00am 26.5 NW 14 18 1007.3 - - - Partly cloudy 10 - - - -
30/04:50am 27.1 NNW 12 16 1007.3 - - - Partly cloudy 9 - - - -
30/04:40am 27.2 WNW 7 11 1007.4 - - - Partly cloudy 10 - - - -
30/04:30am 27.0 WNW 6 10 1007.5 - - - Partly cloudy 10 - - - -
30/04:20am 26.8 WNW 7 10 1007.4 - - - Partly cloudy 10 - - - -
30/04:10am 26.7 WNW 9 11 1007.3 - - - Partly cloudy 10 - - - -
30/04:00am 26.6 WNW 9 10 1006.9 - - - Partly cloudy 9 - - - -
30/03:50am 26.4 WNW 12 12 1006.8 - - - Partly cloudy 10 - - - -
30/03:40am 26.3 WNW 11 14 1006.7 - - - Partly cloudy 10 - - - -
30/03:30am 26.4 W 8 10 1006.9 - - - Partly cloudy 10 - - - -
30/03:20am 26.6 W 11 12 1007.0 - - - Partly cloudy 10 - - - -
30/03:10am 26.4 WSW 10 14 1007.0 - - - Partly cloudy 10 - - - -
30/03:00am 27.3 WSW 13 16 1006.9 - - - Partly cloudy 4 - - - -
30/02:50am 27.9 WSW 6 8 1006.9 - - - Partly cloudy 10 - - - -
30/02:40am 27.8 WSW 7 6 1007.1 - - - Partly cloudy 10 - - - -
30/02:30am 27.9 WSW 6 5 1007.3 - - - Partly cloudy 10 - - - -
30/02:20am 27.9 WSW 8 8 1007.5 - - - Partly cloudy 10 - - - -
30/02:10am 27.8 W 7 9 1007.3 - - - Partly cloudy 10 - - - -
30/02:00am 27.7 W 8 9 1007.5 - - - Partly cloudy 10 - - - -
30/01:50am 27.7 W 8 9 1007.7 - - - Partly cloudy 10 - - - -
30/01:40am 27.7 W 8 9 1007.9 - - - Partly cloudy 10 - - - -
30/01:30am 27.7 W 11 10 1007.8 - - - Partly cloudy 10 - - - -
30/01:20am 27.7 W 10 10 1008.0 - - - Partly cloudy 10 - - - -
30/01:10am 28.0 W 10 12 1008.2 - - - Partly cloudy 10 - - - -
30/01:00am 28.5 WSW 10 12 1008.2 - - - Partly cloudy 10 - - - -
30/12:50am 28.5 SW 10 12 1008.4 - - - Partly cloudy 10 - - - -
30/12:40am 28.6 SW 9 11 1008.5 - - - Partly cloudy 10 - - - -
30/12:30am 28.5 SW 9 11 1008.6 - - - Partly cloudy 10 - - - -
30/12:20am 28.6 SW 9 11 1008.8 - - - Partly cloudy 10 - - - -
30/12:10am 28.6 SW 9 10 1008.9 - - - Cloudy 10 - - - -
30/12:00am 28.6 SW 8 10 1009.0 - - - Cloudy 10 - - - -
 
Date/Time
CST
Temp

°C
Wind Pressure Rain
since 9am
mm
Weather Cloud Vis
km
Sea
Height
m
Swell
Dir
 
Speed
knots
Gust
knots
hPa Trend Height
m
Period
s
Dir
29/11:50pm 28.4 SW 8 8 1008.9 - - - Cloudy 10 - - - -
29/11:40pm 28.3 SW 7 9 1008.9 - - - Cloudy 10 - - - -
29/11:30pm 28.3 SW 8 8 1008.9 - - - Partly cloudy 10 - - - -
29/11:20pm 28.2 SW 7 9 1009.1 - - - Partly cloudy 10 - - - -
29/11:10pm 28.3 WSW 5 6 1009.0 - - - Partly cloudy 10 - - - -
29/11:00pm 28.2 W 4 5 1009.2 - - - Partly cloudy 10 - - - -
29/10:50pm 28.1 W 1 2 1008.9 - - - Partly cloudy 10 - - - -
29/10:40pm 28.2 W 4 3 1009.1 - - - Partly cloudy 10 - - - -
29/10:30pm 28.3 W 4 6 1009.0 - - - Partly cloudy 10 - - - -
29/10:20pm 28.4 W 6 9 1009.2 - - - Partly cloudy 10 - - - -
29/10:10pm 28.5 W 7 9 1008.9 - - - Partly cloudy 10 - - - -
29/10:00pm 28.4 WNW 7 6 1008.6 - - - Partly cloudy 10 - - - -
29/09:50pm 28.3 W 7 8 1008.5 - - - Partly cloudy 10 - - - -
29/09:40pm 28.1 WSW 7 12 1008.4 - - - Partly cloudy 10 - - - -
29/09:30pm 28.6 W 7 8 1008.3 - - - Partly cloudy 10 - - - -
29/09:20pm 28.7 W 6 8 1008.4 - - - Partly cloudy 10 - - - -
29/09:10pm 28.6 W 7 10 1008.5 - - - Partly cloudy 10 - - - -
29/09:00pm 28.2 W 6 6 1008.3 - - - Partly cloudy 10 - - - -
29/08:50pm 28.4 W 7 11 1008.1 - - - Partly cloudy 10 - - - -
29/08:40pm 28.2 W 6 8 1008.1 - - - Partly cloudy 10 - - - -
29/08:30pm 28.1 W 6 11 1007.9 - - - Partly cloudy 10 - - - -
29/08:20pm 28.1 W 7 8 1007.6 - - - Partly cloudy 10 - - - -
29/08:10pm 28.0 W 6 9 1007.2 - - - Partly cloudy 10 - - - -
29/08:00pm 28.0 W 8 9 1007.0 - - - Partly cloudy 10 - - - -
29/07:50pm 28.1 W 8 11 1006.9 - - - Partly cloudy 10 - - - -
29/07:40pm 28.1 W 9 10 1006.7 - - - Partly cloudy 10 - - - -
29/07:30pm 28.1 W 11 11 1006.6 - - - Partly cloudy 10 - - - -
29/07:20pm 28.1 W 10 12 1006.7 - - - Partly cloudy 10 - - - -
29/07:10pm 27.8 WSW 10 11 1006.6 - - - Partly cloudy 10 - - - -
29/07:00pm 27.6 W 13 12 1006.3 - - - Partly cloudy 10 - - - -
29/06:50pm 27.5 W 14 14 1006.1 - - - Partly cloudy 10 - - - -
29/06:40pm 27.8 W 13 15 1006.0 - - - Partly cloudy 10 - - - -
29/06:30pm 27.9 W 14 16 1005.9 - - - Partly cloudy 10 - - - -
29/06:20pm 28.1 W 14 13 1005.9 - - - Partly cloudy 10 - - - -
29/06:10pm 28.5 W 13 16 1005.9 - - - Partly cloudy 10 - - - -
29/06:00pm 28.6 WSW 10 13 1006.2 - - - Partly cloudy 10 - - - -
29/05:50pm 28.2 SW 7 9 1005.9 - - - Partly cloudy 10 - - - -
29/05:40pm 26.9 SSW 7 7 1005.6 - - - Partly cloudy 10 - - - -
29/05:30pm 26.8 S 7 9 1005.7 - - - Partly cloudy 10 - - - -
29/05:20pm 26.8 SSW 11 12 1005.7 - - - Partly cloudy 10 - - - -
29/05:10pm 27.1 SSW 11 16 1005.7 - - - Partly cloudy 10 - - - -
29/05:00pm 27.6 SSW 8 20 1005.5 - - - Partly cloudy 10 - - - -
29/04:50pm 28.9 W 10 12 1005.6 - - - Partly cloudy 10 - - - -
29/04:40pm 30.7 W 12 14 1005.5 - - - Partly cloudy 10 - - - -
29/04:30pm 31.4 W 13 13 1005.4 - - - Partly cloudy 10 - - - -
29/04:20pm 31.1 W 14 13 1005.5 - - - - 10 - - - -
29/04:10pm 30.2 W 13 15 1005.4 - - - Partly cloudy 10 - - - -
29/04:00pm 29.7 W 11 14 1005.3 - - - Partly cloudy 10 - - - -
29/03:50pm 29.4 W 12 14 1005.6 - - - Partly cloudy 10 - - - -
29/03:40pm 30.8 W 14 15 1005.4 - - - - 10 - - - -
29/03:30pm 31.2 W 13 15 1005.2 - - - Partly cloudy 10 - - - -
29/03:20pm 31.1 W 12 13 1005.1 - - - Partly cloudy 10 - - - -
29/03:10pm 30.5 WSW 12 13 1005.3 - - - Partly cloudy 10 - - - -
29/03:00pm 30.0 WSW 13 14 1005.5 - - - Partly cloudy 10 - - - -
29/02:50pm 30.5 WSW 12 13 1005.5 - - - Partly cloudy 10 - - - -
29/02:40pm 30.1 WSW 12 14 1005.6 - - - - 10 - - - -
29/02:30pm 30.1 WSW 12 15 1005.7 - - - - 10 - - - -
29/02:20pm 30.0 WSW 12 13 1005.9 - - - - 10 - - - -
29/02:10pm 30.4 WSW 11 13 1006.0 - - - - 10 - - - -
29/02:00pm 30.7 WSW 11 13 1006.1 - - - - 10 - - - -
29/01:50pm 30.9 W 10 11 1006.1 - - - - 10 - - - -
29/01:40pm 30.9 W 12 12 1006.3 - - - - 10 - - - -
29/01:30pm 30.5 W 13 14 1006.4 - - - Partly cloudy 10 - - - -
29/01:20pm 30.6 W 16 16 1006.5 - - - Partly cloudy 10 - - - -
29/01:10pm 30.6 WSW 14 18 1006.6 - - - Partly cloudy 10 - - - -
29/01:00pm 31.2 WSW 12 14 1006.8 - - - Partly cloudy 10 - - - -
29/12:50pm 31.2 WSW 11 13 1006.9 - - - Partly cloudy 10 - - - -
29/12:40pm 31.2 WSW 10 11 1007.1 - - - Partly cloudy 10 - - - -
29/12:30pm 30.7 W 11 13 1007.5 - - - Partly cloudy 10 - - - -
29/12:20pm 30.8 WSW 10 12 1007.9 - - - - 10 - - - -
29/12:10pm 30.8 WSW 11 12 1008.0 - - - Partly cloudy 10 - - - -
29/12:00pm 30.7 W 11 12 1008.0 - - - - 10 - - - -
29/11:50am 30.3 WSW 11 13 1008.1 - - - - 10 - - - -
29/11:40am 30.4 WSW 12 13 1008.0 - - - - 10 - - - -
29/11:30am 30.2 WSW 12 13 1008.1 - - - - 10 - - - -
29/11:20am 30.2 WSW 13 12 1008.2 - - - - 10 - - - -
29/11:10am 29.8 WSW 15 16 1008.1 - - - Partly cloudy 10 - - - -
29/11:00am 29.9 W 13 16 1008.0 - - - Partly cloudy 10 - - - -
29/10:50am 29.7 W 12 13 1007.9 - - - Partly cloudy 10 - - - -
29/10:40am 29.7 W 12 14 1007.9 - - - Partly cloudy 10 - - - -
29/10:30am 29.8 W 11 15 1007.9 - - - Partly cloudy 10 - - - -
29/10:20am 29.4 W 10 12 1007.8 - - - Partly cloudy 10 - - - -
29/10:10am 29.4 W 11 12 1007.9 - - - Partly cloudy 10 - - - -
29/10:00am 29.3 W 11 13 1008.0 - - - Partly cloudy 10 - - - -
29/09:50am 29.1 WSW 10 11 1008.0 - - - Partly cloudy 10 - - - -
29/09:40am 28.8 WSW 10 12 1008.0 - - - Partly cloudy 10 - - - -
29/09:30am 28.5 WSW 10 11 1008.0 - - - Partly cloudy 10 - - - -
29/09:20am 28.2 WSW 11 12 1007.9 - - - Partly cloudy 10 - - - -
29/09:10am 27.9 SW 11 12 1007.7 - - - Partly cloudy 10 - - - -
29/09:00am 27.5 SW 10 11 1007.8 - - - Partly cloudy 10 - - - -
29/08:50am 26.9 SW 11 14 1007.7 - - - Partly cloudy 10 - - - -
29/08:40am 27.1 WSW 16 21 1007.5 - - - Partly cloudy 10 - - - -
29/08:30am 28.7 W 12 14 1007.5 - - - Partly cloudy 10 - - - -
29/08:20am 28.5 W 12 13 1007.3 - - - Partly cloudy 10 - - - -
29/08:10am 28.5 W 12 14 1006.9 - - - Partly cloudy 10 - - - -
29/08:00am 28.1 WSW 13 13 1006.7 - - - Partly cloudy 10 - - - -
29/07:50am 28.1 W 15 16 1006.6 - - - Partly cloudy 10 - - - -
29/07:40am 28.4 W 17 16 1006.7 - - - Partly cloudy 10 - - - -
29/07:30am 28.7 W 17 21 1006.5 - - - Partly cloudy 10 - - - -
29/07:20am 28.9 W 15 18 1006.4 - - - Partly cloudy 10 - - - -
29/07:10am 28.9 W 15 16 1006.3 - - - Partly cloudy 10 - - - -
29/07:00am 29.1 W 15 16 1006.0 - - - Partly cloudy 10 - - - -
29/06:50am 28.9 W 16 17 1006.0 - - - Partly cloudy 10 - - - -
29/06:40am 28.8 W 16 17 1005.7 - - - Partly cloudy 10 - - - -
29/06:30am 29.0 W 16 17 1005.6 - - - Partly cloudy 10 - - - -
29/06:20am 29.4 WSW 15 18 1005.6 - - - Partly cloudy 10 - - - -
29/06:10am 28.3 SW 15 15 1005.7 - - - Partly cloudy 10 - - - -
29/06:00am 27.8 WSW 19 21 1005.7 - - - Partly cloudy 10 - - - -
29/05:50am 28.9 W 16 19 1005.4 - - - Partly cloudy 10 - - - -
29/05:40am 29.0 W 17 17 1005.5 - - - Partly cloudy 10 - - - -
29/05:30am 28.9 W 16 18 1005.6 - - - Partly cloudy 10 - - - -
29/05:20am 28.9 W 16 18 1005.4 - - - Partly cloudy 10 - - - -
29/05:10am 28.8 W 16 18 1005.3 - - - Partly cloudy 10 - - - -
29/05:00am 28.9 W 17 17 1005.2 - - - Partly cloudy 10 - - - -
29/04:50am 28.8 W 18 19 1005.1 - - - Partly cloudy 10 - - - -
29/04:40am 28.9 W 16 20 1005.1 - - - Partly cloudy 10 - - - -
29/04:30am 28.6 W 15 16 1005.2 - - - Partly cloudy 10 - - - -
29/04:20am 28.2 WNW 14 14 1005.2 - - - Partly cloudy 10 - - - -
29/04:10am 27.9 WNW 15 15 1005.1 - - - Partly cloudy 10 - - - -
29/04:00am 28.1 WNW 17 18 1005.2 - - - Partly cloudy 10 - - - -
29/03:50am 28.2 W 17 17 1005.2 - - - Partly cloudy 10 - - - -
29/03:40am 28.8 W 17 18 1005.3 - - - Partly cloudy 10 - - - -
29/03:30am 28.8 W 14 15 1005.1 - - - Partly cloudy 10 - - - -
29/03:20am 29.0 W 14 15 1005.3 - - - Partly cloudy 10 - - - -
29/03:10am 29.0 W 13 15 1005.3 - - - Partly cloudy 10 - - - -
29/03:00am 28.6 WSW 14 15 1005.6 - - - Partly cloudy 10 - - - -
29/02:50am 28.6 WSW 14 15 1005.8 - - - Cloudy 10 - - - -
29/02:40am 28.7 WSW 15 16 1005.8 - - - Partly cloudy 10 - - - -
29/02:30am 29.1 W 15 16 1005.8 - - - Partly cloudy 10 - - - -
29/02:20am 29.2 W 15 16 1006.0 - - - Partly cloudy 10 - - - -
29/02:10am 29.5 W 14 16 1006.1 - - - Partly cloudy 10 - - - -
29/02:00am 29.8 W 16 17 1006.1 - - - Cloudy 10 - - - -
29/01:50am 29.9 W 15 17 1006.2 - - - Cloudy 10 - - - -
29/01:40am 29.6 W 14 16 1006.1 - - - Partly cloudy 10 - - - -
29/01:30am 29.6 W 14 16 1006.2 - - - Partly cloudy 10 - - - -
29/01:20am 29.2 WSW 14 15 1006.3 - - - Partly cloudy 10 - - - -
29/01:10am 29.1 W 15 14 1006.4 - - - Partly cloudy 10 - - - -
29/01:00am 29.0 W 16 17 1006.5 - - - - 10 - - - -
29/12:50am 29.2 W 17 17 1006.8 - - - - 10 - - - -
29/12:40am 29.3 W 17 18 1006.8 - - - - 10 - - - -
29/12:30am 29.0 W 15 17 1006.9 - - - - 10 - - - -
29/12:20am 29.2 W 16 17 1006.8 - - - - 10 - - - -
29/12:10am 29.1 W 16 16 1006.9 - - - - 10 - - - -
29/12:00am 29.1 W 16 17 1006.9 - - - - 10 - - - -
 
Date/Time
CST
Temp

°C
Wind Pressure Rain
since 9am
mm
Weather Cloud Vis
km
Sea
Height
m
Swell
Dir
 
Speed
knots
Gust
knots
hPa Trend Height
m
Period
s
Dir
28/11:50pm 29.2 W 15 16 1007.0 - - - Partly cloudy 10 - - - -
28/11:40pm 29.1 W 14 14 1007.2 - - - Partly cloudy 10 - - - -
28/11:30pm 29.2 W 14 15 1007.2 - - - Partly cloudy 10 - - - -
28/11:20pm 29.2 W 14 15 1007.3 - - - Partly cloudy 10 - - - -
28/11:10pm 29.1 W 14 14 1007.3 - - - Partly cloudy 10 - - - -
28/11:00pm 29.2 W 13 14 1007.4 - - - Partly cloudy 10 - - - -
28/10:50pm 29.2 W 13 13 1007.3 - - - Partly cloudy 10 - - - -
28/10:40pm 29.3 W 13 14 1007.1 - - - Partly cloudy 10 - - - -
28/10:30pm 29.3 W 13 14 1007.1 - - - Partly cloudy 10 - - - -
28/10:20pm 29.4 W 13 14 1006.8 - - - - 10 - - - -
28/10:10pm 29.2 W 13 13 1007.1 - - - - 10 - - - -
28/10:00pm 29.2 WSW 14 15 1007.3 - - - - 10 - - - -
28/09:50pm 29.2 W 14 15 1007.3 - - - Partly cloudy 10 - - - -
28/09:40pm 29.2 W 13 12 1007.2 - - - Partly cloudy 10 - - - -
28/09:30pm 29.2 WSW 13 14 1007.1 - - - Partly cloudy 10 - - - -
28/09:20pm 29.1 WSW 10 15 1007.1 - - - Partly cloudy 10 - - - -
28/09:10pm 29.0 WSW 9 10 1007.0 - - - Partly cloudy 10 - - - -
28/09:00pm 29.0 WSW 9 11 1007.0 - - - Partly cloudy 10 - - - -
28/08:50pm 29.0 WSW 9 11 1007.1 - - - Partly cloudy 10 - - - -
28/08:40pm 29.0 WSW 9 10 1006.7 - - - - 10 - - - -
28/08:30pm 29.0 WSW 9 13 1006.5 - - - Partly cloudy 10 - - - -
28/08:20pm 29.1 WSW 10 14 1006.4 - - - Partly cloudy 10 - - - -
28/08:10pm 28.9 WSW 9 12 1006.4 - - - Partly cloudy 10 - - - -
28/08:00pm 29.0 WSW 9 10 1006.3 - - - Partly cloudy 10 - - - -
28/07:50pm 29.0 WSW 10 15 1006.2 - - - Partly cloudy 10 - - - -
28/07:40pm 29.0 SW 9 13 1006.1 - - - Partly cloudy 10 - - - -
28/07:30pm 28.1 SSW 11 10 1006.0 - - - Partly cloudy 10 - - - -
28/07:20pm 28.0 WSW 13 19 1005.7 - - - Partly cloudy 10 - - - -
28/07:10pm 29.3 WSW 12 18 1005.6 - - - Partly cloudy 10 - - - -
28/07:00pm 29.0 WSW 11 15 1005.5 - - - Partly cloudy 10 - - - -
28/06:50pm 29.1 W 13 13 1005.4 - - - Partly cloudy 10 - - - -
28/06:40pm 29.6 W 16 18 1005.2 - - - - 10 - - - -
28/06:30pm 29.6 W 15 16 1004.9 - - - - 10 - - - -
28/06:20pm 29.3 WSW 15 18 1004.9 - - - Partly cloudy 10 - - - -
28/06:10pm 29.6 W 17 20 1004.7 - - - Partly cloudy 10 - - - -
28/06:00pm 29.8 WSW 17 19 1004.4 - - - Partly cloudy 10 - - - -
28/05:50pm 29.1 W 12 14 1004.4 - - - Partly cloudy 10 - - - -
28/05:40pm 29.5 W 13 17 1004.1 - - - - 10 - - - -
28/05:30pm 29.6 W 17 17 1004.0 - - - Partly cloudy 10 - - - -
28/05:20pm 30.0 W 18 19 1004.0 - - - Partly cloudy 10 - - - -
28/05:10pm 29.9 W 16 22 1004.1 - - - Partly cloudy 10 - - - -
28/05:00pm 29.1 WSW 13 12 1004.1 - - - Partly cloudy 10 - - - -
28/04:50pm 28.7 WSW 13 14 1004.1 - - - Partly cloudy 10 - - - -
28/04:40pm 28.8 W 19 16 1004.1 - - - Partly cloudy 10 - - - -
28/04:30pm 30.6 W 19 20 1004.2 - - - Partly cloudy 10 - - - -
28/04:20pm 31.0 W 18 18 1004.4 - - - Partly cloudy 10 - - - -
28/04:10pm 31.3 W 18 18 1004.1 - - - Partly cloudy 10 - - - -
28/04:00pm 30.9 W 15 20 1003.9 - - - Partly cloudy 10 - - - -
28/03:50pm 29.9 W 16 14 1004.1 - - - Partly cloudy 10 - - - -
28/03:40pm 31.3 W 18 18 1004.3 - - - Partly cloudy 10 - - - -
28/03:30pm 30.6 W 17 20 1004.2 - - - Partly cloudy 10 - - - -
28/03:20pm 30.0 W 14 17 1004.4 - - - Partly cloudy 10 - - - -
28/03:10pm 31.3 W 17 18 1004.5 - - - Partly cloudy 10 - - - -
28/03:00pm 31.3 W 17 17 1004.7 - - - Partly cloudy 10 - - - -
28/02:50pm 31.7 W 16 17 1004.9 - - - Partly cloudy 10 - - - -
28/02:40pm 31.9 W 15 17 1005.2 - - - Partly cloudy 10 - - - -
28/02:30pm 30.1 WSW 11 16 1005.3 - - - Partly cloudy 10 - - - -
28/02:20pm 30.1 WSW 14 15 1005.3 - - - Partly cloudy 10 - - - -
28/02:10pm 31.6 W 17 18 1005.5 - - - Partly cloudy 10 - - - -
28/02:00pm 30.8 W 15 19 1005.6 - - - Partly cloudy 10 - - - -
28/01:50pm 30.5 W 15 17 1005.7 - - - Partly cloudy 10 - - - -
28/01:40pm 31.6 W 15 16 1005.7 - - - - 10 - - - -
28/01:30pm 31.6 W 14 16 1005.7 - - - Partly cloudy 10 - - - -
28/01:20pm 30.7 W 15 17 1005.8 - - - Partly cloudy 10 - - - -
28/01:10pm 30.9 W 16 16 1005.9 - - - Partly cloudy 10 - - - -
28/01:00pm 31.4 W 14 16 1005.9 - - - Partly cloudy 10 - - - -
28/12:50pm 30.3 W 13 15 1006.0 - - - Partly cloudy 10 - - - -
28/12:40pm 31.6 WSW 14 15 1006.0 - - - Partly cloudy 10 - - - -
28/12:30pm 32.0 W 14 16 1006.0 - - - Partly cloudy 10 - - - -
28/12:20pm 31.3 W 14 16 1006.1 - - - Partly cloudy 10 - - - -
28/12:10pm 31.8 WSW 14 16 1006.2 - - - Partly cloudy 10 - - - -
28/12:00pm 31.7 W 14 15 1006.6 - - - Partly cloudy 10 - - - -
28/11:50am 31.7 WSW 14 16 1006.6 - - - Partly cloudy 10 - - - -
28/11:40am 30.5 WSW 13 16 1006.8 - - - Partly cloudy 10 - - - -
28/11:30am 31.4 WSW 13 14 1006.8 - - - Partly cloudy 10 - - - -
28/11:20am 31.7 WSW 14 14 1006.9 - - - Partly cloudy 10 - - - -
28/11:10am 31.2 WSW 15 16 1006.9 - - - Partly cloudy 10 - - - -
28/11:00am 30.7 WSW 13 15 1006.7 - - - Partly cloudy 10 - - - -
28/10:50am 31.8 WSW 13 13 1006.8 - - - Partly cloudy 10 - - - -
28/10:40am 30.2 WSW 14 15 1006.9 - - - Partly cloudy 10 - - - -
28/10:30am 31.2 W 13 13 1006.9 - - - Partly cloudy 10 - - - -

Other Formats:

Comma delimited format used in spreadsheet applications
http://www.bom.gov.au/fwo/IDD60701/IDD60701.95100.axf

JavaScript Object Notation format (JSON) in row-major order
http://www.bom.gov.au/fwo/IDD60701/IDD60701.95100.json